User: anonymous   Login
Location: Ceske Budejovice
(48.9830°N, 14.4670°E)
Time: 18:47:02
(UTC+02:00)
Language:

CUTE-I - Orbit

View from above orbital plane
View from above orbital plane
View from above satellite
View from above satellite

Ground track
Ground track

The orbit data is extracted from the following two-line orbital elements,

1 27844U 03031E   19202.93046730 +.00000016 +00000-0 +27070-4 0  9995
2 27844 098.6833 210.6463 0008720 299.0145 061.0158 14.22186057832979
Epoch (UTC): 21 July 2019 22:19:52
Eccentricity: 0.0008720
inclination: 98.6833°
perigee height: 811 km
apogee height: 824 km
right ascension of ascending node: 210.6463°
argument of perigee: 299.0145°
revolutions per day: 14.22186057
mean anomaly at epoch: 61.0158°
orbit number at epoch: 83297

The dashed part of the orbit path shows where the satellite is in the earth's shadow,  

DLR